Current Version              Previous Version:    01  02  03  04  05  06  07  08  09  10  11  12  13  14  15  16  17  18  19  20  21  22  23  24  25  26  27  28  29  30  
   31  32  33  34  35  36  37  38  39  40  41  42  43  44  45  46  47  48  49  50  51  52  53  54  55  56  57  58  59  60  

[Printable]
901
ASUS44 KLUB 260501
RWRTX
WEST TEXAS WEATHER ROUNDUP
NATIONAL WEATHER SERVICE LUBBOCK TX
1200 AM CDT SUN OCT 26 2014

NOTE: "FAIR" INDICATES FEW OR NO CLOUDS BELOW 12,000 FEET WITH NO
SIGNIFICANT WEATHER AND/OR OBSTRUCTIONS TO VISIBILITY.

TXZ004-006>008-010-012-014-016-OKZ002-260600-
TEXAS PANHANDLE/OKLAHOMA PANHANDLE

CITY           SKY/WX    TMP DP  RH WIND       PRES   REMARKS
AMARILLO       CLEAR     64  50  60 S15       30.06F
BORGER         CLEAR     70  50  49 S14G23    30.02S
CANADIAN       CLEAR     71  53  52 S13G20    29.98F
DALHART        CLEAR     58  42  55 S12       30.04F
DUMAS            N/A     60  47  62 S12       30.03F
GUYMON         CLEAR     66  49  54 S14       29.96F
HEREFORD       CLEAR     57  49  76 MISG      30.09S
PAMPA          CLEAR     64  50  60 S14       30.04F
$$

TXZ026-029-035-045-048-260600-
SOUTHERN PANHANDLE/SOUTH PLAINS/ROLLING PLAINS

CITY           SKY/WX    TMP DP  RH WIND       PRES   REMARKS
CHILDRESS      CLEAR     66  50  56 S8        30.03S
SEMINOLE       CLEAR     62  52  69 S3        30.12S
LUBBOCK        CLEAR     65  46  50 S12       30.09F
PLAINVIEW      CLEAR     61  51  69 S8        30.07F
SNYDER         CLEAR     65  50  59 S7        30.09S
$$

TXZ052-054-060>062-072-078-127-140-154-169-260600-
PERMIAN BASIN/CONCHO VALLEY/BIG COUNTRY/EDWARDS PLATEAU

CITY           SKY/WX    TMP DP  RH WIND       PRES   REMARKS
ABILENE        CLEAR     74  54  49 S12       30.07F
BIG SPRING     CLEAR     69  52  54 SE10      30.13S
BRADY          CLEAR     68  54  60 S5        30.10F
JUNCTION       CLEAR     68  52  56 CALM      30.12S
MIDLAND        CLEAR     70  51  51 S9        30.11S
ODESSA         CLEAR     71  52  50 S14       30.12S
SAN ANGELO     CLEAR     65  52  62 S6        30.09F
SONORA         CLEAR     61  52  72 CALM      30.17S
SWEETWATER     CLEAR     71  49  46 S13       30.11F
WINK           CLEAR     68  52  56 SE12      30.08S
$$

TXZ055-058-074-075-080-082-260600-
FAR WEST/SOUTHWEST MOUNTAINS/TRANS PECOS

CITY           SKY/WX    TMP DP  RH WIND       PRES   REMARKS
ALPINE         CLEAR     64  51  62 SW7       30.26F
DRYDEN           N/A     67  58  72 NE5       30.09F
EL PASO        CLEAR     64  50  60 SE3       30.13S
FORT STOCKTON  CLEAR     68  55  63 S16       30.11F
MARFA          CLEAR     54  48  82 E3        30.25S
PECOS          CLEAR     65  54  67 SE3       30.07S
PRESIDIO       FAIR      70  51  49 N8        30.10F
$$

TXZ014-016-019-021>030-083-260600
TEXAS TECH WEST TEXAS MESONET/TEXAS PANHANDLE/NORTHERN SOUTH PLAINS

CITY           SKY/WX    TMP DP  RH WIND       PRES   REMARKS
ABERNATHY 5ENE   N/A     56  50  80 S9        30.11S
AMARILLO 9NNE    N/A     69  51  52 S16       30.03F
AMARILLO 7SSE    N/A     65  50  59 S13       30.08S
AMHERST 1NE      N/A     58  48  70 S8        30.10F
BOOTLEG 11WNW    N/A     58  41  53 SW9       30.13S
CANADIAN 6E      N/A     68  52  56 S13       29.98F
CAPROCK CYN SP   N/A     70  50  50 SW14      30.05F
CHILDRESS 2NNE   N/A     68  50  52 SE8       30.02S
CLARENDON 2WSW   N/A     64  51  62 S8        30.05S
CLAUDE 12SW      N/A     68  49  50 S7        30.08S
DIMMITT 2NE      N/A     57  48  73 S10       30.10S
FLOYDADA 2NNE    N/A     60  50  70 S8        30.09S
FRIONA 2NE       N/A     60  45  58 SW10      30.11S
GOODLETT 3W      N/A     64  50  60 S7        30.00F
HART 3N          N/A     63  49  62 S12       30.10S
HEREFORD 2NW     N/A     63  46  53 S9        30.09S
MCLEAN 1E        N/A     64  50  61 S7        30.03F
MEMPHIS 1NE      N/A     63  53  72 W2        30.02F
MULESHOE 2SSW    N/A     58  47  66 S6        30.10S
OLTON 6S         N/A     60  48  65 S10       30.09F
PALO DURO SP     N/A     67  49  53 S15       30.08S
PAMPA 2E         N/A     67  51  57 S14       30.03F
PLAINVIEW 1S     N/A     61  51  70 S9        30.09S
SILVERTON 7ESE   N/A     65  51  58 S10       30.07F
TULIA 2ENE       N/A     62  51  66 S13       30.08F
TURKEY 2WSW      N/A     64  53  68 S9        30.03F
UMBARGER 3NNE    N/A     62  51  68 S13       30.09S
$$

TXZ033>036-039>041-045>048-260600
TEXAS TECH WEST TEXAS MESONET/SOUTH PLAINS

CITY           SKY/WX    TMP DP  RH WIND       PRES   REMARKS
AIKEN 3WSW       N/A     58  51  79 S8        30.10S
ANTON 6SSW       N/A     58  50  75 S5        30.10F
BROWNFIELD 2S    N/A     59  49  69 S8        30.10F
DENVR CTY 7WNW   N/A     59  48  65 S8        30.11F
GAIL 2ESE        N/A     64  52  63 S8        30.08F
LAMESA 2SE       N/A     60  49  67 S7        30.12S
LEVELLAND 4S     N/A     57  49  75 S7        30.11S
LUBBOCK 3WNW     N/A     68  46  45 S8        30.10S
MORTON 1ENE      N/A     60  48  64 S8        30.11S
ODONNELL 1N      N/A     65  46  51 S9        30.11S
PLAINS 3N        N/A     61  48  63 S7        30.12F
RALLS 1SE        N/A     60  50  68 S8        30.10S
REESE CENTER     N/A     59  48  67 S8        30.10S
SEMINOLE 2NNE    N/A     61  51  69 S9        30.11S
SLATON 2NE       N/A     61  49  64 S13       30.10S
SNYDER 3E        N/A     64  50  59 S8        30.08S
SUNDOWN 8SW      N/A     55  47  75 SW9       30.11F
TAHOKA 3NNE      N/A     60  46  60 S9        30.10S
WOLFFORTH 6SSW   N/A     59  49  67 S6        30.10F
$$

TXZ031-032-036>038-042>044-260600-
TEXAS TECH WEST TEXAS MESONET/ROLLING PLAINS

CITY           SKY/WX    TMP DP  RH WIND       PRES   REMARKS
ASPERMONT 3NE    N/A     64  52  64 S7        30.04S
FLUVANNA 3WNW    N/A     63  50  64 S7        30.09F
GRAHAM 5SSW      N/A     71  48  44 S18       30.09F
GUTHRIE 10WSW    N/A     67  51  55 S13       30.03F
HASKELL 1NW      N/A     71  49  44 S9        30.03F
JAYTON 1SSE      N/A     64  52  64 S5        30.05F
KNOX CITY 3NW    N/A     73  50  43 S13       30.02F
LK A HENRY 1NW   N/A     67  50  54 SW5       30.06F
NORTHFIELD 1S    N/A     70  52  53 S12       30.02S
ODELL 4ENE       N/A     72  50  46 S12       30.00F
PADUCAH 10SW     N/A     63  51  64 S9        30.03F
POST 1NE         N/A     69  49  47 S8        30.08S
RRING SPRGS 3N   N/A     62  52  70 S8        30.06S
SEYMOUR 3NW      N/A     70  52  53 S8        30.02S
SPUR 1W          N/A     62  51  65 S5        30.05S
WEINERT 2NNE     N/A     68  50  52 S8        30.03F
WHITE RVR 6NE    N/A     66  50  56 S7        30.07F
$$

TXZ052-054-060>062-072-078-127-140-154-169-260600-
TEXAS TECH WEST TEXAS MESONET/PERMIAN BASIN/
CONCHO VALLEY/BIG COUNTRY/EDWARDS PLATEAU

CITY           SKY/WX    TMP DP  RH WIND       PRES   REMARKS
COYANOSA 2N      N/A     67  55  63 SE9       30.09F
JUNCTION 1SSW    N/A     63  53  68 S2        30.12F
MERTZON 3NNE     N/A     62  51  68 S5        30.12S
SAN ANGELO 7NW   N/A     65  49  55 S3        30.10S
STRLNG CT 4WSW   N/A     69  52  53 S10       30.12S
ST LAWRNCE 5SW   N/A     65  51  59 S8        30.12F
SWEETWATR 11SW   N/A     68  50  53 S10       30.11S
WALL 1E          N/A     66  50  55 SW7       30.10F
$$

TXZ055-058-074-075-080-082-260600-
TEXAS TECH WEST TEXAS MESONET/FAR WEST/SOUTHWEST MOUNTAINS/TRANS PECOS

CITY           SKY/WX    TMP DP  RH WIND       PRES   REMARKS
PRSMN GAP BBNP   N/A     73  55  53 N13       30.12S
GUADLPE MTN NP   N/A     66  33  29 W6        30.24F
$$